Regional Weather Roundup
Issued by NWS

Home | Current Version | Previous Version | Text Only | Print | Product List | Glossary On
Versions: 1 2 3 4 5 6 7 8 9 10 11 12 13 14 15 16 17 18 19 20 21 22 23 24 25 26 27 28 29 30 31 32 33 34 35 36 37 38 39 40 41 42 43 44 45 46 47 48 49 50
000
ASUS43 KMKX 200200
RWRWI

WISCONSIN REGIONAL WEATHER ROUNDUP
NATIONAL WEATHER SERVICE MILWAUKEE/SULLIVAN WI
900 PM CDT SUN OCT 19 2014

NOTE: "FAIR" INDICATES FEW OR NO CLOUDS BELOW 12,000 FEET WITH NO
SIGNIFICANT WEATHER AND/OR OBSTRUCTIONS TO VISIBILITY.

WIZ001-002-006>008-014>016-023>028-200300-
NORTHWEST WISCONSIN

CITY           SKY/WX    TMP DP  RH WIND       PRES   REMARKS
SUPERIOR ARPT  MOCLDY    56  43  63 NW6       29.76S
ASHLAND        CLEAR     47  42  83 W6        29.75S
HAYWARD        CLEAR     43  41  93 CALM      29.76F
SIREN          PTCLDY    46  42  84 W5        29.78R
CUMBERLAND     CLEAR     45  41  87 CALM      29.77F
RICE LAKE      CLEAR     46  42  86 CALM      29.78F
CHETEK         CLEAR     45  43  95 CALM      29.77F
LADYSMITH      CLEAR     43  40  91 CALM      29.79S
EAU CLAIRE     NOT AVBL
MENOMONIE      CLEAR     48  43  82 CALM      29.78S
NEW RICHMOND   CLEAR     47  43  85 W7        29.79S
OSCEOLA        CLEAR     56  44  64 W8        29.81R
$$

WIZ003>005-009-010-017-018-200300-
NORTH CENTRAL WISCONSIN

CITY           SKY/WX    TMP DP  RH WIND       PRES   REMARKS
MANITOWISH WTR CLEAR     39  39  99 CALM      29.76S
ARBOR VITAE    CLEAR     44  42  92 CALM      29.76F
WOODRUFF       CLEAR     44  42  92 CALM      29.76F
RHINELANDER    CLEAR     44  41  89 SW5       29.77F
EAGLE RIVER    CLEAR     43  42  95 CALM      29.76S
LAND O LAKES   MOCLDY    43  41  93 CALM      29.77S
PHILLIPS       CLEAR     43  41  94 CALM      29.77S
TOMAHAWK       CLEAR     41  40  94 CALM      29.78F
MEDFORD        CLEAR     41  40  95 CALM      29.78F
MERRILL        CLEAR     40  40  99 CALM      29.78F
$$

WIZ029-030-035-036-043>047-200300-
CENTRAL WISCONSIN

CITY           SKY/WX    TMP DP  RH WIND       PRES   REMARKS
WAUSAU         PTCLDY    45  42  89 CALM      29.77F
MOSINEE        NOT AVBL
MARSHFIELD     PTCLDY    50  43  77 CALM      29.78F
STEVENS POINT  PTCLDY    49  43  79 SW6       29.80F
WAUPACA        PTCLDY    54  45  72 SW7       29.81F
WAUTOMA        NOT AVBL
WISC RAPIDS    PTCLDY    50  44  80 S6        29.80F
CAMP DOUGLAS   NOT AVBL
$$

WIZ011>013-019>022-031-037>040-048>050-200300-
NORTHEAST WISCONSIN

CITY           SKY/WX    TMP DP  RH WIND       PRES   REMARKS
ANTIGO         PTCLDY    42  41  95 CALM      29.79F
SHAWANO        PTCLDY    51  43  74 CALM      29.80F
OCONTO         CLOUDY    51  43  72 SW3       29.80F
STURGEON BAY   CLOUDY    50  41  71 S8        29.81F
GREEN BAY      MOCLDY    51  44  77 S7        29.81F
MANITOWOC      NOT AVBL
APPLETON       MOCLDY    50  43  76 S17       29.82F
CLINTONVILLE   PTCLDY    46  43  87 S5        29.81S
OSHKOSH        MOCLDY    52  43  71 SW12      29.82F
$$

WIZ032>034-041-042-053>061-200300-
SOUTHWEST WISCONSIN

CITY           SKY/WX    TMP DP  RH WIND       PRES   REMARKS
LA CROSSE      CLEAR     57  46  66 S9        29.79F
SPARTA         CLEAR     54  43  67 SW3       29.82F
VIROQUA        CLEAR     54  45  71 SW10      29.83F
BOSCOBEL       CLEAR     54  43  66 SW6       29.85F
PRAIRIE DU CHI CLEAR     56  42  60 CALM      29.85F
PLATTEVILLE    PTCLDY    49  43  78 CALM      29.90F
$$

WIZ056-057-062-063-064-067-068-200300-
SOUTH CENTRAL WISCONSIN

CITY           SKY/WX    TMP DP  RH WIND       PRES   REMARKS
REEDSBURG      PTCLDY    53  44  71 SW12      29.83F
BARABOO/DELLS  PTCLDY    53  41  65 SW12G17   29.83F
LONE ROCK      NOT AVBL
MINERAL POINT  PTCLDY    52  43  71 S8        29.88F
MADISON        MOCLDY    53  42  66 S7        29.87F
MIDDLETON      MOCLDY    53  42  65 SW8       29.88S
WATERTOWN      MOCLDY    49  42  75 S5        29.88F
MONROE         MOCLDY    52  43  71 SW13      29.90S
JANESVILLE     CLEAR     52  41  66 SW6       29.90F
$$

WIZ051-052-058>065-066-070>072-200300-
SOUTHEAST WISCONSIN

CITY           SKY/WX    TMP DP  RH WIND       PRES   REMARKS
MILWAUKEE      MOCLDY    51  41  68 SW12      29.89F
WAUKESHA       CLEAR     48  41  76 SW12      29.90F
MILWAUKEE/TIMM NOT AVBL
RACINE         PTCLDY    50  42  74 SW9       29.92S
BURLINGTON     CLEAR     49  41  74 SW8       29.90F
KENOSHA        CLEAR     51  42  71 SW9       29.91S
FOND DU LAC    LGT RAIN  52  41  66 SW15G24   29.83F
SHEBOYGAN      CLOUDY    53  41  63 SW12      29.85F
WEST BEND      PTCLDY    50  37  62 SW9       29.86F
JUNEAU         MOCLDY    49  41  73 S12       29.88F
$$

LSZ147-162-200300-
LAKE SUPERIOR

STATION/POSITION TIME  TEMP    WIND        PRES    WAVE
                       AIR SEA DIR/SP/G            HT/PER
                 (UTC) (F)     (DEG/KT/KT) (MB)    (FT/S)
W MID LAKE BUOY  0050   47 46   60/  2/  2 1007.2S   1/ 4
DEVILS ISLAND    0100   56     250/  8/ 10 1007.0R
PORT WING        0100   57     220/  6/  8 1007.1R
SAXON HARBOR     0100   49     190/  3/  5 1006.8F
$$

LMZ867-665-643>646-200300-
LAKE MICHIGAN

STATION/POSITION TIME  TEMP    WIND        PRES    WAVE
                       AIR SEA DIR/SP/G            HT/PER
                 (UTC) (F)     (DEG/KT/KT) (MB)    (FT/S)
CHAMBERS ISLAND  0100   52     180/  7/ 13 1009.5F
N MID LAKE BUOY  0050   51 51  200/ 23/ 29 1009.8F   8/ 7
NORTHPORT PIER   0100   51     180/  6/ 11 1009.8S
KEWAUNEE LAKESHO 0100   51     200/  7/ 10 1009.3F
SHEBOYGAN LAKESH 0100   53 50  200/ 12/ 14 1011.8F
PORT WASHINGTON  0100   54     220/  4/  8 1012.5F
ATWATER BUOY     0100   53     200/ 12/ 14 1013.4F
MILWAUKEE LAKESH 0100   52     220/ 11/ 14   N/A
S MID LAKE BUOY  0050   54 55  200/ 21/ 25 1013.5F   5/ 5
KENOSHA   LAKESH 0100   52     190/ 10/ 13 1012.9F
$$

TC  - TEMPERATURE IN CELSIUS
VSB - VISIBILITY IN STATUTE MILES
WCI - WIND CHILL INDEX
HX  - HEAT INDEX



USA.gov is the U.S. government's official web portal to all federal, state and local government web resources and services.